Weather History for Morgantown, WV

Change the Weather History Date:

Wednesday, March 20, 2013

  Actual Average Record
Temperature  
Mean Temperature 37 °F 43 °F  
Max Temperature 45 °F 53 °F 82 °F (2012)
Min Temperature 29 °F 33 °F 12 °F (1965)
Degree Days  
Heating Degree Days 28 22  
Month to date heating degree days 493 496  
Since 1 July heating degree days 4184 4385  
Cooling Degree Days 0 0  
Month to date cooling degree days 0 0  
Year to date cooling degree days 0 0  
Moisture  
Dew Point 14 °F    
Average Humidity 39    
Maximum Humidity 49    
Minimum Humidity 28    
Precipitation  
Precipitation 0.00 in 0.12 in 0.82 in (2002)
Month to date precipitation 1.81 2.30  
Year to date precipitation 6.38 7.71  
Sea Level Pressure  
Sea Level Pressure 29.93 in    
Wind  
Wind Speed 8 mph (WSW)    
Max Wind Speed 18 mph    
Max Gust Speed 32 mph    
Visibility 10 miles    
Events      
T = Trace of Precipitation, MM = Missing Value Source: NWS Daily Summary

Daily Weather History Graph

Daily Weather History Graph

Search for Another Location

Airport:

Trip Planner

Search our weather history database for the weather conditions in past years. The results will help you decide how hot, cold, wet, or windy it might be!

Date:

Astronomy

Mar. 20, 2013 Rise Set
Actual Time 7:22 AM EDT 7:31 PM EDT
Civil Twilight 6:55 AM EDT 7:58 PM EDT
Nautical Twilight 6:24 AM EDT 8:30 PM EDT
Astronomical Twilight 5:52 AM EDT 9:02 PM EDT
Moon 1:06 PM EDT (3/20) 3:00 AM EDT (3/20)
Length of Visible Light 13h 02m
Length of Day
12h 09m
First Quarter, 59% of the Moon is Illuminated
Mar 20
First Quarter
Mar 27
Full
Apr 3
Last Quarter
Apr 10
New
Apr 18
First Quarter

Hourly Weather History & Observations

Time (EDT) Temp. Windchill Dew Point Humidity Pressure Visibility Wind Dir Wind Speed Gust Speed Precip Events Conditions
12:53 AM 35.1 °F 27.9 °F 12.0 °F 39% 30.00 in 10.0 mi West 9.2 mph 20.7 mph N/A   Clear
1:53 AM 34.0 °F 26.6 °F 12.0 °F 40% 30.01 in 10.0 mi West 9.2 mph - N/A   Clear
2:53 AM 33.1 °F 26.9 °F 12.9 °F 43% 30.01 in 10.0 mi Variable 6.9 mph - N/A   Clear
3:53 AM 33.1 °F 28.7 °F 12.0 °F 42% 30.00 in 10.0 mi SW 4.6 mph - N/A   Clear
4:53 AM 32.0 °F 27.5 °F 12.9 °F 45% 30.00 in 10.0 mi SW 4.6 mph - N/A   Clear
5:53 AM 32.0 °F 27.5 °F 12.9 °F 45% 30.00 in 10.0 mi SSW 4.6 mph - N/A   Clear
6:53 AM 32.0 °F 26.4 °F 12.9 °F 45% 30.01 in 10.0 mi SW 5.8 mph - N/A   Clear
7:53 AM 30.9 °F 25.2 °F 14.0 °F 50% 30.01 in 10.0 mi SSW 5.8 mph - N/A   Clear
8:53 AM 34.0 °F 28.0 °F 14.0 °F 44% 30.01 in 10.0 mi SW 6.9 mph - N/A   Clear
9:53 AM 35.1 °F 29.3 °F 12.0 °F 39% 30.01 in 10.0 mi Variable 6.9 mph - N/A   Overcast
10:53 AM 39.0 °F 32.8 °F 12.0 °F 33% 29.97 in 10.0 mi SSW 9.2 mph - N/A   Overcast
11:53 AM 41.0 °F 35.2 °F 12.9 °F 32% 29.94 in 10.0 mi WSW 9.2 mph 20.7 mph N/A   Overcast
12:53 PM 42.1 °F 36.6 °F 14.0 °F 32% 29.91 in 10.0 mi SW 9.2 mph 20.7 mph N/A   Overcast
1:53 PM 45.0 °F 40.1 °F 14.0 °F 29% 29.86 in 10.0 mi SW 9.2 mph 24.2 mph N/A   Overcast
2:53 PM 44.1 °F 39.5 °F 14.0 °F 30% 29.84 in 10.0 mi WSW 8.1 mph 26.5 mph N/A   Overcast
3:53 PM 44.1 °F 38.6 °F 15.1 °F 31% 29.82 in 10.0 mi SW 10.4 mph 24.2 mph N/A   Mostly Cloudy
4:53 PM 41.0 °F 34.7 °F 18.0 °F 40% 29.82 in 10.0 mi West 10.4 mph 20.7 mph N/A   Overcast
5:53 PM 42.1 °F 38.4 °F 17.1 °F 37% 29.81 in 10.0 mi West 5.8 mph - N/A   Overcast
6:53 PM 39.9 °F 35.1 °F 17.1 °F 40% 29.83 in 10.0 mi WNW 6.9 mph 18.4 mph N/A   Overcast
7:53 PM 37.9 °F 29.2 °F 12.9 °F 36% 29.85 in 10.0 mi NW 15.0 mph - N/A   Overcast
8:53 PM 36.0 °F 27.5 °F 12.0 °F 37% 29.88 in 10.0 mi NW 12.7 mph - N/A   Overcast
9:53 PM 34.0 °F 24.6 °F 12.9 °F 42% 29.90 in 10.0 mi NNW 13.8 mph - N/A   Overcast
10:53 PM 32.0 °F 23.0 °F 12.9 °F 45% 29.90 in 10.0 mi WNW 11.5 mph - N/A   Overcast
11:53 PM 30.9 °F 24.3 °F 12.9 °F 47% 29.91 in 10.0 mi NW 6.9 mph - N/A   Overcast